OICI  Ilam Airport

Add Bookmark

Ilam, Iran

Status IATA
Operational IIL
Latitude Longitude
33° 35' 11" N 46° 24' 17" E
33.586601 46.404800
Local (DST + 5) UTC (GMT + 4)
Oct 26, 2014 07:07 Oct 26, 2014 03:37
Sunrise-Sunset Local UTC
Begin Civil Twilight 06:11 02:41
Sunrise 06:36 03:06
Sunset 05:39 14:09
End Civil Twilight 06:05 14:35

Current Weather

METAR Observed VFR
OICI 260300Z 10006KT CAVOK 08/M02 Q1020 A3013 Sun, Oct 26, 2014 @ 03:00 UTC
(37 Minutes ago)
Visual Flight Rules
Wind Visibility Clouds Conditions
100° at 6 knots (11 kph) 10 km or more
  • Clear skies
  • No significant weather
Temperatures Readings Precipitation
Current Temp 8°C (46°F)
Dewpoint -2°C (28°F)
Humidity 50%
Altimeter 30.12"Hg
Sea Level Pressure 1020mb
Field Elevation 4406.17'
None Recorded

Additional weather within a 185.2km radius of OICI

Map ICAO Location
OIGK 101.5km N (040°)
OICC 109.3km N (039°)
OICK 174.8km E (095°)

24 Hour Weather History

Loading
-

24 Hour Weather Graphs

Loading
-

CheckWX.com is intended as a tool to help pilots better visualize weather data. It is not intended as a substitute for an official weather briefing obtained from a Flight Service Station. CheckWX.com does not meet the FAA requirements for an official pre-flight weather briefing. Therefore, it's important that pilots still call and obtain an official FSS pre-flight weather briefing.